Connexion
E-mail
Mot de passe
Afficher le mot de passe
Retenir
Mot de passe oublié ?
Devenir membre gratuitement
Inscription
Inscription
Devenir membre
Inscription gratuite
Devenir client
Découvrez nos services
Paramètres
Paramètres
Cotations dynamiques 
OFFON

TRADEWEB MARKETS INC.

(TW)
  Rapport
Cours estimé en temps réel. Temps réel estimé Cboe BZX - 26/11 19:02:07
97.555 USD   +0.54%
10/11VENTE PAR DES INITIÉS : Tradeweb Markets
MT
08/11VENTE PAR DES INITIÉS : Tradeweb Markets
MT
03/11VENTE PAR UN INITIÉ : Tradeweb Markets
MT
SynthèseCotationsGraphiquesActualitésNotationsAgendaSociétéFinancesConsensusRévisionsDérivésFondsCommunauté 
Vue 5 joursHistorique des transactions
Cotations 5 jours   Cours en différé. Temps Différé Nasdaq - 26/11 19:00:00
19/11/2021 22/11/2021 23/11/2021 24/11/2021 26/11/2021 Date
97.9(c) 96.84(c) 96.71(c) 97.03(c) 95.99 Dernier
-0.53% -1.08% -0.13% +0.33% -1.07% Variation
904 853 710 118 872 745 412 565 511 291 Volume
98.1 99.25 96.37 96.14 95.83 Ouverture
98.445 99.25 97.1 97.3 96.68 Plus haut
96.97 96.23 95.33 95.79 95.135 Plus bas
Historique des transactions
Heure Cours Quantité
18:59:59 95.99 209
18:59:59 95.99 100
18:59:59 95.99 100
18:59:59 95.99 100
18:59:58 96 267
18:59:58 96 168
18:59:58 96 256
18:59:58 96 100
18:59:58 96 100
18:59:57 95.99 100
18:59:57 96 199
18:59:57 96 100
18:59:57 96 300
18:59:57 96 100
18:59:57 96 100
18:59:57 95.99 100
18:59:57 95.99 100
18:59:57 95.99 100
18:59:56 95.99 100
18:59:56 95.99 100
18:59:56 95.99 100
18:59:56 95.86 300
18:59:56 95.99 100
18:59:56 95.99 600
18:59:56 95.99 100
18:59:56 95.99 200
18:59:56 95.99 100
18:59:56 95.99 2170
18:59:56 95.99 100
18:59:56 95.99 100
18:59:56 95.99 100
18:59:56 95.99 100
18:59:56 96 500
18:59:56 96 800
18:59:56 96 100
18:59:56 96 100
18:59:56 95.99 1400
18:59:56 95.99 100
18:59:56 95.99 100
18:59:56 95.99 100
18:59:56 95.99 100
18:59:56 95.99 100
18:59:56 95.99 100
18:59:56 95.98 100
18:59:56 95.96 100
18:59:56 95.95 400
18:59:56 95.95 100
18:59:56 95.93 100
18:59:56 95.93 3400
18:59:56 95.93 1900
18:59:56 95.93 100
18:59:56 95.92 100
18:59:56 95.91 1100
18:59:56 95.9 100
18:59:56 95.98 100
18:59:56 95.95 100
18:59:56 95.93 100
18:59:56 95.9 300
18:59:56 95.89 100
18:59:56 95.89 100
18:59:56 95.8584 1900
18:59:56 95.89 1000
18:59:56 95.89 400
Suivant >>
Graphique intraday de TRADEWEB MARKETS INC.
Graphique journalier TRADEWEB MARKETS INC.
Durée : Période :
Tradeweb Markets Inc. : Graphique analyse technique Tradeweb Markets Inc. | Zone bourse
Graphique plein écran